Location: Monroe
(41.9160°N, 83.3980°W)
Time: 08:22:49
(UTC-04:00)

ISS - Visible Passes

Search period start: 23 September 2014 00:00
Search period end: 03 October 2014 00:00
Orbit: 413 x 416 km, 51.6° (Epoch: 23 September)

Date Brightness Start Highest point End Pass type
(mag) Time Alt. Az. Time Alt. Az. Time Alt. Az.
23 Sep -0.8 05:40:20 13° NNW 05:41:29 15° N 05:43:33 10° NE visible
24 Sep -0.3 04:53:25 14° NNE 04:53:25 14° NNE 04:54:25 10° NE visible
24 Sep -1.0 06:27:19 10° NW 06:29:55 21° NNE 06:32:31 10° ENE visible
25 Sep -0.9 05:39:23 14° NNW 05:40:45 18° N 05:43:05 10° NE visible
26 Sep -0.3 04:52:31 14° NNE 04:52:31 14° NNE 04:53:39 10° NE visible
26 Sep -1.8 06:25:52 10° NW 06:28:57 34° NNE 06:32:01 10° E visible
27 Sep -1.3 05:38:35 20° NNW 05:39:48 25° NNE 05:42:37 10° ENE visible
28 Sep -0.3 04:51:51 16° NE 04:51:51 16° NE 04:53:07 10° ENE visible
28 Sep -3.2 06:24:45 13° NW 06:27:42 76° NE 06:31:01 10° ESE visible
29 Sep -2.4 05:38:07 42° N 05:38:36 46° NNE 05:41:49 10° ESE visible
30 Sep -0.2 04:51:38 15° E 04:51:38 15° E 04:52:25 10° E visible
30 Sep -2.7 06:24:32 23° W 06:26:09 39° SW 06:29:16 10° SSE visible
01 Oct -2.2 05:38:12 38° SE 05:38:12 38° SE 05:40:24 10° SE visible
02 Oct -1.3 06:24:55 14° SW 06:24:55 14° SW 06:26:15 10° SSW visible
